Time,TemperatureF,DewpointF,PressureIn,WindDirection,WindDirectionDegrees,WindSpeedMPH,WindSpeedGustMPH,Humidity,HourlyPrecipIn,Conditions,Clouds,dailyrainin,SoftwareType,DateUTC
2013-05-16 00:00:00,75.0,63.7,29.79,SW,235,2.0,8.0,68,0.00,,,0.00,meteohub,2013-05-16 05:00:00,
2013-05-16 00:05:00,75.0,63.7,29.79,SW,223,2.0,8.0,68,0.00,,,0.00,meteohub,2013-05-16 05:05:00,
2013-05-16 00:10:00,75.0,63.7,29.78,WSW,249,4.0,8.0,68,0.00,,,0.00,meteohub,2013-05-16 05:10:00,
2013-05-16 00:15:00,75.2,63.5,29.78,SW,230,4.0,8.0,67,0.00,,,0.00,meteohub,2013-05-16 05:15:00,
2013-05-16 00:20:00,75.4,63.7,29.78,SW,227,2.0,8.0,67,0.00,,,0.00,meteohub,2013-05-16 05:20:00,
2013-05-16 00:25:00,75.4,63.7,29.79,SW,218,1.0,8.0,67,0.00,,,0.00,meteohub,2013-05-16 05:25:00,
2013-05-16 00:30:00,75.0,63.7,29.79,SW,234,2.0,6.0,68,0.00,,,0.00,meteohub,2013-05-16 05:30:00,
2013-05-16 00:35:00,74.7,63.3,29.79,SW,225,0.0,6.0,68,0.00,,,0.00,meteohub,2013-05-16 05:35:00,
2013-05-16 00:40:00,74.3,63.5,29.79,SW,220,2.0,4.0,69,0.00,,,0.00,meteohub,2013-05-16 05:40:00,
2013-05-16 00:45:00,74.1,63.7,29.80,SW,228,2.0,4.0,70,0.00,,,0.00,meteohub,2013-05-16 05:45:00,
2013-05-16 00:50:00,73.8,63.3,29.80,SW,229,2.0,4.0,70,0.00,,,0.00,meteohub,2013-05-16 05:50:00,
2013-05-16 00:55:00,73.6,63.7,29.80,SSW,213,0.0,5.0,71,0.00,,,0.00,meteohub,2013-05-16 05:55:00,
2013-05-16 01:00:00,73.2,63.7,29.81,SW,224,0.0,5.0,72,0.00,,,0.00,meteohub,2013-05-16 06:00:00,
2013-05-16 01:05:00,73.0,63.5,29.81,SW,236,0.0,3.0,72,0.00,,,0.00,meteohub,2013-05-16 06:05:00,
2013-05-16 01:10:00,72.9,63.3,29.81,SW,227,1.0,5.0,72,0.00,,,0.00,meteohub,2013-05-16 06:10:00,
2013-05-16 01:15:00,72.9,63.7,29.80,SW,233,3.0,5.0,73,0.00,,,0.00,meteohub,2013-05-16 06:15:00,
2013-05-16 01:21:00,72.7,63.5,29.81,SSW,213,3.0,5.0,73,0.00,,,0.00,meteohub,2013-05-16 06:21:00,
2013-05-16 01:26:00,72.5,63.3,29.81,SW,223,4.0,5.0,73,0.00,,,0.00,meteohub,2013-05-16 06:26:00,
2013-05-16 01:31:00,72.3,63.5,29.81,SW,229,4.0,5.0,74,0.00,,,0.00,meteohub,2013-05-16 06:31:00,
2013-05-16 01:36:00,72.1,63.3,29.80,SW,223,0.0,6.0,74,0.00,,,0.00,meteohub,2013-05-16 06:36:00,
2013-05-16 01:41:00,72.1,63.9,29.80,SW,224,4.0,6.0,75,0.00,,,0.00,meteohub,2013-05-16 06:41:00,
2013-05-16 01:46:00,72.1,63.9,29.80,SW,223,0.0,6.0,75,0.00,,,0.00,meteohub,2013-05-16 06:46:00,
2013-05-16 01:51:00,72.0,63.7,29.81,WNW,298,1.0,6.0,75,0.00,,,0.00,meteohub,2013-05-16 06:51:00,
2013-05-16 01:56:00,72.0,64.0,29.80,WSW,238,0.0,6.0,76,0.00,,,0.00,meteohub,2013-05-16 06:56:00,
2013-05-16 02:01:00,71.8,63.9,29.80,WSW,250,0.0,6.0,76,0.00,,,0.00,meteohub,2013-05-16 07:01:00,
2013-05-16 02:06:00,71.8,63.9,29.80,SW,219,4.0,5.0,76,0.00,,,0.00,meteohub,2013-05-16 07:06:00,
2013-05-16 02:11:00,71.6,63.7,29.80,SW,236,4.0,7.0,76,0.00,,,0.00,meteohub,2013-05-16 07:11:00,
2013-05-16 02:16:00,71.4,63.9,29.80,SW,231,0.0,7.0,77,0.00,,,0.00,meteohub,2013-05-16 07:16:00,
2013-05-16 02:21:00,71.2,64.0,29.79,SW,225,1.0,7.0,78,0.00,,,0.00,meteohub,2013-05-16 07:21:00,
2013-05-16 02:26:00,71.1,64.2,29.79,WSW,254,0.0,5.0,79,0.00,,,0.00,meteohub,2013-05-16 07:26:00,
2013-05-16 02:31:00,71.1,64.2,29.80,WSW,254,0.0,4.0,79,0.00,,,0.00,meteohub,2013-05-16 07:31:00,
2013-05-16 02:36:00,70.9,64.4,29.79,WSW,254,0.0,4.0,80,0.00,,,0.00,meteohub,2013-05-16 07:36:00,
2013-05-16 02:41:00,70.5,64.0,29.79,WSW,254,0.0,0.0,80,0.00,,,0.00,meteohub,2013-05-16 07:41:00,
2013-05-16 02:46:00,70.5,64.4,29.79,WSW,254,0.0,0.0,81,0.00,,,0.00,meteohub,2013-05-16 07:46:00,
2013-05-16 02:51:00,70.5,64.4,29.79,WSW,254,0.0,0.0,81,0.00,,,0.00,meteohub,2013-05-16 07:51:00,
2013-05-16 02:56:00,70.3,64.2,29.79,WSW,254,0.0,0.0,81,0.00,,,0.00,meteohub,2013-05-16 07:56:00,
2013-05-16 03:02:00,70.3,64.2,29.78,WSW,252,0.0,2.0,81,0.00,,,0.00,meteohub,2013-05-16 08:02:00,
2013-05-16 03:07:00,70.2,64.0,29.79,WSW,252,0.0,2.0,81,0.00,,,0.00,meteohub,2013-05-16 08:07:00,
2013-05-16 03:12:00,70.2,64.0,29.78,WSW,252,0.0,2.0,81,0.00,,,0.00,meteohub,2013-05-16 08:12:00,
2013-05-16 03:17:00,70.2,64.0,29.79,WSW,252,0.0,2.0,81,0.00,,,0.00,meteohub,2013-05-16 08:17:00,
2013-05-16 03:22:00,70.0,64.2,29.79,WSW,252,0.0,0.0,82,0.00,,,0.00,meteohub,2013-05-16 08:22:00,
2013-05-16 03:27:00,69.8,64.0,29.79,WSW,252,0.0,0.0,82,0.00,,,0.00,meteohub,2013-05-16 08:27:00,
2013-05-16 03:32:00,69.6,63.9,29.79,SW,228,0.0,2.0,82,0.00,,,0.00,meteohub,2013-05-16 08:32:00,
2013-05-16 03:37:00,69.6,63.9,29.80,SW,228,0.0,3.0,82,0.00,,,0.00,meteohub,2013-05-16 08:37:00,
2013-05-16 03:42:00,69.6,63.9,29.80,SW,228,0.0,3.0,82,0.00,,,0.00,meteohub,2013-05-16 08:42:00,
2013-05-16 03:47:00,69.4,63.7,29.79,SW,228,0.0,2.0,82,0.00,,,0.00,meteohub,2013-05-16 08:47:00,
2013-05-16 03:52:00,69.3,63.9,29.80,SW,228,0.0,0.0,83,0.00,,,0.00,meteohub,2013-05-16 08:52:00,
2013-05-16 03:57:00,69.1,63.7,29.80,SW,228,0.0,0.0,83,0.00,,,0.00,meteohub,2013-05-16 08:57:00,
2013-05-16 04:02:00,68.9,63.9,29.80,SW,228,0.0,0.0,84,0.00,,,0.00,meteohub,2013-05-16 09:02:00,
2013-05-16 04:07:00,68.7,63.7,29.80,SW,229,0.0,0.0,84,0.00,,,0.00,meteohub,2013-05-16 09:07:00,
2013-05-16 04:12:00,68.5,63.5,29.80,West,279,0.0,0.0,84,0.00,,,0.00,meteohub,2013-05-16 09:12:00,
2013-05-16 04:17:00,68.5,63.5,29.80,West,279,0.0,2.0,84,0.00,,,0.00,meteohub,2013-05-16 09:17:00,
2013-05-16 04:22:00,68.5,63.5,29.80,West,279,0.0,2.0,84,0.00,,,0.00,meteohub,2013-05-16 09:22:00,
2013-05-16 04:27:00,68.5,63.1,29.80,West,279,1.0,2.0,83,0.00,,,0.00,meteohub,2013-05-16 09:27:00,
2013-05-16 04:32:00,68.7,62.6,29.80,West,279,0.0,2.0,81,0.00,,,0.00,meteohub,2013-05-16 09:32:00,
2013-05-16 04:37:00,68.7,62.6,29.81,West,279,0.0,2.0,81,0.00,,,0.00,meteohub,2013-05-16 09:37:00,
2013-05-16 04:42:00,68.5,62.4,29.81,West,279,0.0,2.0,81,0.00,,,0.00,meteohub,2013-05-16 09:42:00,
2013-05-16 04:47:00,68.5,62.1,29.81,West,279,0.0,1.0,80,0.00,,,0.00,meteohub,2013-05-16 09:47:00,
2013-05-16 04:52:00,68.4,61.5,29.81,West,279,0.0,1.0,79,0.00,,,0.00,meteohub,2013-05-16 09:52:00,
2013-05-16 04:57:00,68.4,61.9,29.81,West,279,0.0,1.0,80,0.00,,,0.00,meteohub,2013-05-16 09:57:00,
2013-05-16 05:02:00,68.2,61.7,29.82,West,279,0.0,1.0,80,0.00,,,0.00,meteohub,2013-05-16 10:02:00,
2013-05-16 05:07:00,68.2,61.3,29.82,West,279,0.0,2.0,79,0.00,,,0.00,meteohub,2013-05-16 10:07:00,
2013-05-16 05:12:00,68.4,61.2,29.82,NW,313,0.0,5.0,78,0.00,,,0.00,meteohub,2013-05-16 10:12:00,
2013-05-16 05:17:00,68.4,60.4,29.82,NW,306,2.0,5.0,76,0.00,,,0.00,meteohub,2013-05-16 10:17:00,
2013-05-16 05:22:00,68.4,59.7,29.82,NNW,342,2.0,5.0,74,0.00,,,0.00,meteohub,2013-05-16 10:22:00,
2013-05-16 05:27:00,68.4,59.7,29.82,NNW,342,1.0,5.0,74,0.00,,,0.00,meteohub,2013-05-16 10:27:00,
2013-05-16 05:32:00,68.4,59.7,29.82,NNW,340,2.0,5.0,74,0.00,,,0.00,meteohub,2013-05-16 10:32:00,
2013-05-16 05:37:00,68.4,59.7,29.82,NNW,340,3.0,5.0,74,0.00,,,0.00,meteohub,2013-05-16 10:37:00,
2013-05-16 05:42:00,68.2,59.2,29.82,NNW,346,2.0,5.0,73,0.00,,,0.00,meteohub,2013-05-16 10:42:00,
2013-05-16 05:47:00,68.0,59.0,29.82,NNE,16,3.0,5.0,73,0.00,,,0.00,meteohub,2013-05-16 10:47:00,
2013-05-16 05:52:00,67.8,58.5,29.82,North,9,1.0,6.0,72,0.00,,,0.00,meteohub,2013-05-16 10:52:00,
2013-05-16 05:57:00,67.6,58.6,29.82,NNE,12,1.0,6.0,73,0.00,,,0.00,meteohub,2013-05-16 10:57:00,
2013-05-16 06:02:00,67.5,58.5,29.83,North,355,2.0,6.0,73,0.00,,,0.00,meteohub,2013-05-16 11:02:00,
2013-05-16 06:07:00,67.5,58.5,29.83,North,0,1.0,6.0,73,0.00,,,0.00,meteohub,2013-05-16 11:07:00,
2013-05-16 06:12:00,67.3,58.3,29.83,NNE,14,4.0,6.0,73,0.00,,,0.00,meteohub,2013-05-16 11:12:00,
2013-05-16 06:17:00,67.3,58.3,29.83,NNE,22,2.0,6.0,73,0.00,,,0.00,meteohub,2013-05-16 11:17:00,
2013-05-16 06:22:00,66.9,57.6,29.83,North,5,0.0,5.0,72,0.00,,,0.00,meteohub,2013-05-16 11:22:00,
2013-05-16 06:27:00,66.9,57.9,29.83,NNE,29,0.0,5.0,73,0.00,,,0.00,meteohub,2013-05-16 11:27:00,
2013-05-16 06:32:00,66.7,57.7,29.83,NNE,31,0.0,5.0,73,0.00,,,0.00,meteohub,2013-05-16 11:32:00,
2013-05-16 06:37:00,66.7,57.7,29.83,NNE,19,2.0,5.0,73,0.00,,,0.00,meteohub,2013-05-16 11:37:00,
2013-05-16 06:42:00,66.6,58.1,29.83,North,5,0.0,5.0,74,0.00,,,0.00,meteohub,2013-05-16 11:42:00,
2013-05-16 06:47:00,66.4,57.9,29.83,NNE,28,2.0,5.0,74,0.00,,,0.00,meteohub,2013-05-16 11:47:00,
2013-05-16 06:52:00,66.2,58.1,29.83,NNE,32,4.0,5.0,75,0.00,,,0.00,meteohub,2013-05-16 11:52:00,
2013-05-16 06:57:00,66.2,57.7,29.83,NNE,13,0.0,5.0,74,0.00,,,0.00,meteohub,2013-05-16 11:57:00,
2013-05-16 07:02:00,66.2,58.1,29.84,NNE,13,0.0,5.0,75,0.00,,,0.00,meteohub,2013-05-16 12:02:00,
2013-05-16 07:07:00,66.2,58.1,29.84,NNE,13,0.0,5.0,75,0.00,,,0.00,meteohub,2013-05-16 12:07:00,
2013-05-16 07:12:00,66.2,58.5,29.84,NNE,13,0.0,5.0,76,0.00,,,0.00,meteohub,2013-05-16 12:12:00,
2013-05-16 07:17:00,66.4,58.3,29.84,NNE,13,0.0,0.0,75,0.00,,,0.00,meteohub,2013-05-16 12:17:00,
2013-05-16 07:22:00,66.4,57.9,29.85,NNE,13,0.0,0.0,74,0.00,,,0.00,meteohub,2013-05-16 12:22:00,
2013-05-16 07:27:00,66.6,57.6,29.85,NNW,328,0.0,0.0,73,0.00,,,0.00,meteohub,2013-05-16 12:27:00,
2013-05-16 07:32:00,66.7,57.4,29.85,NNW,328,0.0,1.0,72,0.00,,,0.00,meteohub,2013-05-16 12:32:00,
2013-05-16 07:37:00,66.9,57.6,29.85,NNW,329,0.0,1.0,72,0.00,,,0.00,meteohub,2013-05-16 12:37:00,
2013-05-16 07:42:00,67.1,57.4,29.85,NNE,17,1.0,4.0,71,0.00,,,0.00,meteohub,2013-05-16 12:42:00,
2013-05-16 07:47:00,67.3,57.2,29.85,NNW,345,1.0,4.0,70,0.00,,,0.00,meteohub,2013-05-16 12:47:00,
2013-05-16 07:52:00,67.3,57.6,29.85,North,355,2.0,5.0,71,0.00,,,0.00,meteohub,2013-05-16 12:52:00,
2013-05-16 07:57:00,67.5,57.7,29.85,NNE,22,2.0,5.0,71,0.00,,,0.00,meteohub,2013-05-16 12:57:00,
2013-05-16 08:02:00,67.5,57.7,29.86,NNE,14,0.0,5.0,71,0.00,,,0.00,meteohub,2013-05-16 13:02:00,
2013-05-16 08:07:00,67.6,57.9,29.86,NNE,22,2.0,5.0,71,0.00,,,0.00,meteohub,2013-05-16 13:07:00,
2013-05-16 08:12:00,67.6,57.9,29.86,North,10,0.0,5.0,71,0.00,,,0.00,meteohub,2013-05-16 13:12:00,
2013-05-16 08:17:00,67.6,57.9,29.86,NNW,346,5.0,5.0,71,0.00,,,0.00,meteohub,2013-05-16 13:17:00,
2013-05-16 08:22:00,67.8,58.1,29.86,North,355,0.0,6.0,71,0.00,,,0.00,meteohub,2013-05-16 13:22:00,
2013-05-16 08:27:00,67.8,57.7,29.87,North,349,0.0,6.0,70,0.00,,,0.00,meteohub,2013-05-16 13:27:00,
2013-05-16 08:32:00,68.0,58.3,29.87,NNW,346,0.0,6.0,71,0.00,,,0.00,meteohub,2013-05-16 13:32:00,
2013-05-16 08:37:00,68.2,58.1,29.88,NNW,346,0.0,3.0,70,0.00,,,0.00,meteohub,2013-05-16 13:37:00,
2013-05-16 08:42:00,68.4,57.7,29.88,NNW,346,0.0,0.0,69,0.00,,,0.00,meteohub,2013-05-16 13:42:00,
2013-05-16 08:47:00,68.5,57.9,29.88,NNW,346,0.0,0.0,69,0.00,,,0.00,meteohub,2013-05-16 13:47:00,
2013-05-16 08:52:00,69.1,58.5,29.88,NW,318,0.0,0.0,69,0.00,,,0.00,meteohub,2013-05-16 13:52:00,
2013-05-16 08:57:00,69.3,58.6,29.88,NW,318,0.0,2.0,69,0.00,,,0.00,meteohub,2013-05-16 13:57:00,
2013-05-16 09:02:00,69.6,58.6,29.88,NW,318,0.0,2.0,68,0.00,,,0.00,meteohub,2013-05-16 14:02:00,
2013-05-16 09:07:00,69.8,58.3,29.88,NW,318,0.0,2.0,67,0.00,,,0.00,meteohub,2013-05-16 14:07:00,
2013-05-16 09:12:00,70.2,57.9,29.88,NNW,346,3.0,3.0,65,0.00,,,0.00,meteohub,2013-05-16 14:12:00,
2013-05-16 09:17:00,70.2,57.4,29.88,NNW,344,2.0,5.0,64,0.00,,,0.00,meteohub,2013-05-16 14:17:00,
2013-05-16 09:22:00,70.3,58.1,29.88,North,5,0.0,6.0,65,0.00,,,0.00,meteohub,2013-05-16 14:22:00,
2013-05-16 09:27:00,70.5,58.1,29.88,North,11,0.0,6.0,65,0.00,,,0.00,meteohub,2013-05-16 14:27:00,
2013-05-16 09:32:00,70.9,58.1,29.88,North,5,2.0,3.0,64,0.00,,,0.00,meteohub,2013-05-16 14:32:00,
2013-05-16 09:37:00,71.1,58.6,29.88,NNE,23,1.0,4.0,65,0.00,,,0.00,meteohub,2013-05-16 14:37:00,
2013-05-16 09:42:00,71.1,58.6,29.88,NNW,338,1.0,4.0,65,0.00,,,0.00,meteohub,2013-05-16 14:42:00,
2013-05-16 09:47:00,71.2,58.8,29.88,NNE,33,4.0,4.0,65,0.00,,,0.00,meteohub,2013-05-16 14:47:00,
2013-05-16 09:52:00,72.0,59.5,29.88,North,9,2.0,6.0,65,0.00,,,0.00,meteohub,2013-05-16 14:52:00,
2013-05-16 09:57:00,72.5,59.5,29.88,North,355,5.0,6.0,64,0.00,,,0.00,meteohub,2013-05-16 14:57:00,
2013-05-16 10:02:00,73.4,59.5,29.88,NNE,32,5.0,6.0,62,0.00,,,0.00,meteohub,2013-05-16 15:02:00,
2013-05-16 10:07:00,73.6,59.4,29.88,NNW,343,6.0,7.0,61,0.00,,,0.00,meteohub,2013-05-16 15:07:00,
2013-05-16 10:12:00,74.5,60.1,29.88,NNE,13,6.0,7.0,61,0.00,,,0.00,meteohub,2013-05-16 15:12:00,
2013-05-16 10:17:00,75.0,59.2,29.88,NNE,13,4.0,7.0,58,0.00,,,0.00,meteohub,2013-05-16 15:17:00,
2013-05-16 10:22:00,75.0,59.2,29.88,NE,41,4.0,7.0,58,0.00,,,0.00,meteohub,2013-05-16 15:22:00,
2013-05-16 10:27:00,75.6,58.8,29.88,NNE,28,6.0,7.0,56,0.00,,,0.00,meteohub,2013-05-16 15:27:00,
2013-05-16 10:32:00,75.6,58.3,29.88,NE,42,0.0,7.0,55,0.00,,,0.00,meteohub,2013-05-16 15:32:00,
2013-05-16 10:37:00,76.1,58.8,29.88,NE,49,5.0,7.0,55,0.00,,,0.00,meteohub,2013-05-16 15:37:00,
2013-05-16 10:42:00,76.6,57.7,29.88,East,88,1.0,7.0,52,0.00,,,0.00,meteohub,2013-05-16 15:42:00,
2013-05-16 10:47:00,77.5,57.4,29.88,NNE,17,0.0,6.0,50,0.00,,,0.00,meteohub,2013-05-16 15:47:00,
2013-05-16 10:52:00,79.0,57.6,29.88,NE,34,0.0,5.0,48,0.00,,,0.00,meteohub,2013-05-16 15:52:00,
2013-05-16 10:57:00,79.7,57.7,29.88,East,96,1.0,5.0,47,0.00,,,0.00,meteohub,2013-05-16 15:57:00,
2013-05-16 11:02:00,79.9,57.9,29.89,ESE,107,1.0,5.0,47,0.00,,,0.00,meteohub,2013-05-16 16:02:00,
2013-05-16 11:07:00,80.2,55.8,29.89,ESE,108,0.0,5.0,43,0.00,,,0.00,meteohub,2013-05-16 16:07:00,
2013-05-16 11:12:00,81.0,54.3,29.89,NNE,23,0.0,5.0,40,0.00,,,0.00,meteohub,2013-05-16 16:12:00,
2013-05-16 11:17:00,81.0,53.6,29.88,NE,48,0.0,7.0,39,0.00,,,0.00,meteohub,2013-05-16 16:17:00,
2013-05-16 11:22:00,81.3,54.0,29.88,NE,39,2.0,7.0,39,0.00,,,0.00,meteohub,2013-05-16 16:22:00,
2013-05-16 11:27:00,82.0,51.6,29.89,ESE,103,0.0,7.0,35,0.00,,,0.00,meteohub,2013-05-16 16:27:00,
2013-05-16 11:32:00,83.1,51.8,29.89,SSE,157,4.0,5.0,34,0.00,,,0.00,meteohub,2013-05-16 16:32:00,
2013-05-16 11:37:00,82.9,52.5,29.89,ENE,69,1.0,6.0,35,0.00,,,0.00,meteohub,2013-05-16 16:37:00,
2013-05-16 11:42:00,83.5,51.4,29.89,North,10,1.0,6.0,33,0.00,,,0.00,meteohub,2013-05-16 16:42:00,
2013-05-16 11:47:00,84.2,52.0,29.89,South,179,0.0,6.0,33,0.00,,,0.00,meteohub,2013-05-16 16:47:00,
2013-05-16 11:52:00,83.8,51.6,29.89,SE,142,4.0,5.0,33,0.00,,,0.00,meteohub,2013-05-16 16:52:00,
2013-05-16 11:57:00,83.5,49.6,29.89,NNE,29,5.0,7.0,31,0.00,,,0.00,meteohub,2013-05-16 16:57:00,
2013-05-16 12:02:00,83.3,49.5,29.89,NE,51,4.0,7.0,31,0.00,,,0.00,meteohub,2013-05-16 17:02:00,
2013-05-16 12:07:00,82.2,49.5,29.88,NE,53,7.0,7.0,32,0.00,,,0.00,meteohub,2013-05-16 17:07:00,
2013-05-16 12:12:00,82.0,49.3,29.88,ESE,118,3.0,10.0,32,0.00,,,0.00,meteohub,2013-05-16 17:12:00,
2013-05-16 12:17:00,82.2,48.6,29.88,SE,132,0.0,10.0,31,0.00,,,0.00,meteohub,2013-05-16 17:17:00,
2013-05-16 12:22:00,82.9,49.3,29.88,ENE,72,2.0,10.0,31,0.00,,,0.00,meteohub,2013-05-16 17:22:00,
2013-05-16 12:27:00,82.9,49.3,29.88,SW,215,5.0,8.0,31,0.00,,,0.00,meteohub,2013-05-16 17:27:00,
2013-05-16 12:32:00,83.3,49.5,29.88,NE,37,2.0,7.0,31,0.00,,,0.00,meteohub,2013-05-16 17:32:00,
2013-05-16 12:37:00,83.1,49.3,29.88,ENE,61,0.0,7.0,31,0.00,,,0.00,meteohub,2013-05-16 17:37:00,
2013-05-16 12:42:00,83.8,49.1,29.88,NNE,13,0.0,7.0,30,0.00,,,0.00,meteohub,2013-05-16 17:42:00,
2013-05-16 12:47:00,84.0,50.2,29.88,ENE,59,4.0,7.0,31,0.00,,,0.00,meteohub,2013-05-16 17:47:00,
2013-05-16 12:52:00,83.8,49.1,29.88,NNE,29,5.0,6.0,30,0.00,,,0.00,meteohub,2013-05-16 17:52:00,
2013-05-16 12:57:00,83.7,49.8,29.88,East,89,5.0,8.0,31,0.00,,,0.00,meteohub,2013-05-16 17:57:00,
2013-05-16 13:02:00,83.8,50.0,29.88,NNE,19,0.0,8.0,31,0.00,,,0.00,meteohub,2013-05-16 18:02:00,
2013-05-16 13:07:00,84.7,50.7,29.88,ESE,106,1.0,8.0,31,0.00,,,0.00,meteohub,2013-05-16 18:07:00,
2013-05-16 13:12:00,85.1,49.3,29.87,ESE,113,0.0,6.0,29,0.00,,,0.00,meteohub,2013-05-16 18:12:00,
2013-05-16 13:17:00,85.1,49.3,29.87,SSW,192,0.0,6.0,29,0.00,,,0.00,meteohub,2013-05-16 18:17:00,
2013-05-16 13:22:00,84.7,50.7,29.87,SSW,205,5.0,6.0,31,0.00,,,0.00,meteohub,2013-05-16 18:22:00,
2013-05-16 13:27:00,84.6,51.4,29.87,South,173,1.0,7.0,32,0.00,,,0.00,meteohub,2013-05-16 18:27:00,
2013-05-16 13:32:00,84.7,52.5,29.87,SSW,196,7.0,12.0,33,0.00,,,0.00,meteohub,2013-05-16 18:32:00,
2013-05-16 13:37:00,84.7,50.7,29.87,SSW,211,8.0,12.0,31,0.00,,,0.00,meteohub,2013-05-16 18:37:00,
2013-05-16 13:42:00,84.7,50.7,29.87,SSW,202,6.0,9.0,31,0.00,,,0.00,meteohub,2013-05-16 18:42:00,
2013-05-16 13:47:00,84.7,51.6,29.88,SSW,200,8.0,9.0,32,0.00,,,0.00,meteohub,2013-05-16 18:47:00,
2013-05-16 13:52:00,84.7,50.7,29.88,South,182,3.0,9.0,31,0.00,,,0.00,meteohub,2013-05-16 18:52:00,
2013-05-16 13:57:00,85.3,52.2,29.87,SSW,201,9.0,9.0,32,0.00,,,0.00,meteohub,2013-05-16 18:57:00,
2013-05-16 14:02:00,84.7,50.7,29.88,SW,219,6.0,9.0,31,0.00,,,0.00,meteohub,2013-05-16 19:02:00,
2013-05-16 14:07:00,83.8,50.9,29.88,WSW,242,4.0,10.0,32,0.00,,,0.00,meteohub,2013-05-16 19:07:00,
2013-05-16 14:12:00,83.7,51.4,29.87,SSW,192,2.0,10.0,33,0.00,,,0.00,meteohub,2013-05-16 19:12:00,
2013-05-16 14:17:00,83.8,53.2,29.87,South,169,0.0,10.0,35,0.00,,,0.00,meteohub,2013-05-16 19:17:00,
2013-05-16 14:22:00,84.0,53.4,29.87,SSE,166,2.0,6.0,35,0.00,,,0.00,meteohub,2013-05-16 19:22:00,
2013-05-16 14:27:00,84.4,55.2,29.86,SE,145,6.0,6.0,37,0.00,,,0.00,meteohub,2013-05-16 19:27:00,
2013-05-16 14:32:00,84.6,54.7,29.86,South,181,6.0,10.0,36,0.00,,,0.00,meteohub,2013-05-16 19:32:00,
2013-05-16 14:37:00,84.7,54.9,29.86,SSE,161,2.0,10.0,36,0.00,,,0.00,meteohub,2013-05-16 19:37:00,
2013-05-16 14:42:00,85.5,54.7,29.86,WSW,240,0.0,10.0,35,0.00,,,0.00,meteohub,2013-05-16 19:42:00,
2013-05-16 14:47:00,86.0,54.3,29.86,WNW,287,0.0,10.0,34,0.00,,,0.00,meteohub,2013-05-16 19:47:00,
2013-05-16 14:52:00,85.6,54.0,29.86,SW,232,4.0,6.0,34,0.00,,,0.00,meteohub,2013-05-16 19:52:00,
2013-05-16 14:57:00,85.3,55.2,29.86,SSE,153,7.0,7.0,36,0.00,,,0.00,meteohub,2013-05-16 19:57:00,
2013-05-16 15:02:00,84.0,59.7,29.86,South,175,3.0,9.0,44,0.00,,,0.00,meteohub,2013-05-16 20:02:00,
2013-05-16 15:07:00,83.1,60.8,29.86,South,188,16.0,16.0,47,0.00,,,0.00,meteohub,2013-05-16 20:07:00,
2013-05-16 15:12:00,82.8,62.8,29.86,South,186,8.0,16.0,51,0.00,,,0.00,meteohub,2013-05-16 20:12:00,
2013-05-16 15:17:00,82.8,62.8,29.86,SSW,200,9.0,16.0,51,0.00,,,0.00,meteohub,2013-05-16 20:17:00,
2013-05-16 15:22:00,82.6,61.5,29.86,South,180,10.0,16.0,49,0.00,,,0.00,meteohub,2013-05-16 20:22:00,
2013-05-16 15:27:00,82.0,61.0,29.85,South,174,7.0,16.0,49,0.00,,,0.00,meteohub,2013-05-16 20:27:00,
2013-05-16 15:32:00,82.2,59.9,29.85,SSE,164,6.0,16.0,47,0.00,,,0.00,meteohub,2013-05-16 20:32:00,
2013-05-16 15:37:00,82.8,59.9,29.85,SSE,147,4.0,16.0,46,0.00,,,0.00,meteohub,2013-05-16 20:37:00,
2013-05-16 15:42:00,83.5,57.9,29.85,SSW,207,2.0,12.0,42,0.00,,,0.00,meteohub,2013-05-16 20:42:00,
2013-05-16 15:47:00,84.4,58.1,29.85,SE,145,4.0,9.0,41,0.00,,,0.00,meteohub,2013-05-16 20:47:00,
2013-05-16 15:52:00,84.4,57.4,29.85,South,173,1.0,9.0,40,0.00,,,0.00,meteohub,2013-05-16 20:52:00,
2013-05-16 15:57:00,84.0,59.2,29.85,SSW,210,8.0,9.0,43,0.00,,,0.00,meteohub,2013-05-16 20:57:00,
2013-05-16 16:02:00,84.0,58.5,29.85,South,176,6.0,10.0,42,0.00,,,0.00,meteohub,2013-05-16 21:02:00,
2013-05-16 16:07:00,84.4,59.4,29.85,SSW,192,4.0,11.0,43,0.00,,,0.00,meteohub,2013-05-16 21:07:00,
2013-05-16 16:12:00,84.0,58.5,29.85,WSW,240,3.0,11.0,42,0.00,,,0.00,meteohub,2013-05-16 21:12:00,
2013-05-16 16:17:00,84.0,60.4,29.84,SSW,204,2.0,10.0,45,0.00,,,0.00,meteohub,2013-05-16 21:17:00,
2013-05-16 16:22:00,83.8,57.6,29.84,SW,233,4.0,10.0,41,0.00,,,0.00,meteohub,2013-05-16 21:22:00,
2013-05-16 16:27:00,83.5,57.9,29.84,SSW,202,5.0,11.0,42,0.00,,,0.00,meteohub,2013-05-16 21:27:00,
2013-05-16 16:32:00,83.7,58.1,29.84,SSW,208,8.0,11.0,42,0.00,,,0.00,meteohub,2013-05-16 21:32:00,
2013-05-16 16:37:00,83.8,57.6,29.84,South,175,9.0,11.0,41,0.00,,,0.00,meteohub,2013-05-16 21:37:00,
2013-05-16 16:42:00,83.7,57.4,29.84,South,190,2.0,10.0,41,0.00,,,0.00,meteohub,2013-05-16 21:42:00,
2013-05-16 16:47:00,84.0,57.7,29.84,SSW,192,5.0,10.0,41,0.00,,,0.00,meteohub,2013-05-16 21:47:00,
2013-05-16 16:52:00,83.8,57.6,29.84,SSW,195,4.0,11.0,41,0.00,,,0.00,meteohub,2013-05-16 21:52:00,
2013-05-16 16:57:00,84.6,57.6,29.84,WSW,240,1.0,11.0,40,0.00,,,0.00,meteohub,2013-05-16 21:57:00,
2013-05-16 17:02:00,85.1,57.4,29.84,SSE,163,2.0,11.0,39,0.00,,,0.00,meteohub,2013-05-16 22:02:00,
2013-05-16 17:07:00,85.3,56.8,29.84,SW,229,0.0,8.0,38,0.00,,,0.00,meteohub,2013-05-16 22:07:00,
2013-05-16 17:12:00,85.1,56.7,29.84,SSW,207,4.0,8.0,38,0.00,,,0.00,meteohub,2013-05-16 22:12:00,
2013-05-16 17:17:00,84.9,56.5,29.84,SW,227,3.0,9.0,38,0.00,,,0.00,meteohub,2013-05-16 22:17:00,
2013-05-16 17:22:00,84.6,55.4,29.84,SW,233,1.0,9.0,37,0.00,,,0.00,meteohub,2013-05-16 22:22:00,
2013-05-16 17:27:00,84.6,55.4,29.84,SW,227,6.0,9.0,37,0.00,,,0.00,meteohub,2013-05-16 22:27:00,
2013-05-16 17:32:00,83.8,54.9,29.84,WSW,250,0.0,10.0,37,0.00,,,0.00,meteohub,2013-05-16 22:32:00,
2013-05-16 17:37:00,83.3,54.3,29.84,WSW,244,1.0,10.0,37,0.00,,,0.00,meteohub,2013-05-16 22:37:00,
2013-05-16 17:42:00,82.8,55.2,29.84,SW,236,3.0,10.0,39,0.00,,,0.00,meteohub,2013-05-16 22:42:00,
2013-05-16 17:47:00,82.4,57.0,29.84,SW,224,1.0,8.0,42,0.00,,,0.00,meteohub,2013-05-16 22:47:00,
2013-05-16 17:52:00,82.0,57.4,29.84,SW,233,5.0,9.0,43,0.00,,,0.00,meteohub,2013-05-16 22:52:00,
2013-05-16 17:57:00,81.9,57.7,29.84,SW,219,4.0,9.0,44,0.00,,,0.00,meteohub,2013-05-16 22:57:00,
2013-05-16 18:02:00,81.3,57.4,29.84,SW,236,6.0,8.0,44,0.00,,,0.00,meteohub,2013-05-16 23:02:00,
2013-05-16 18:07:00,81.1,57.7,29.84,SW,229,3.0,8.0,45,0.00,,,0.00,meteohub,2013-05-16 23:07:00,
2013-05-16 18:12:00,81.0,58.3,29.84,SW,224,2.0,10.0,46,0.00,,,0.00,meteohub,2013-05-16 23:12:00,
2013-05-16 18:17:00,80.4,57.7,29.84,West,265,4.0,10.0,46,0.00,,,0.00,meteohub,2013-05-16 23:17:00,
2013-05-16 18:22:00,80.2,58.1,29.85,SW,229,1.0,10.0,47,0.00,,,0.00,meteohub,2013-05-16 23:22:00,
2013-05-16 18:27:00,80.1,58.6,29.85,WSW,242,0.0,8.0,48,0.00,,,0.00,meteohub,2013-05-16 23:27:00,
2013-05-16 18:32:00,79.9,58.5,29.85,WSW,240,4.0,9.0,48,0.00,,,0.00,meteohub,2013-05-16 23:32:00,
2013-05-16 18:37:00,79.7,58.3,29.85,WSW,248,0.0,9.0,48,0.00,,,0.00,meteohub,2013-05-16 23:37:00,
2013-05-16 18:42:00,79.5,58.6,29.85,WSW,240,5.0,9.0,49,0.00,,,0.00,meteohub,2013-05-16 23:42:00,
2013-05-16 18:47:00,79.5,58.1,29.85,WSW,240,5.0,7.0,48,0.00,,,0.00,meteohub,2013-05-16 23:47:00,
2013-05-16 18:52:00,79.3,57.9,29.85,WSW,240,4.0,7.0,48,0.00,,,0.00,meteohub,2013-05-16 23:52:00,
2013-05-16 18:57:00,79.3,57.9,29.85,SW,235,0.0,7.0,48,0.00,,,0.00,meteohub,2013-05-16 23:57:00,
2013-05-16 19:02:00,79.2,58.3,29.86,SW,227,0.0,7.0,49,0.00,,,0.00,meteohub,2013-05-17 00:02:00,
2013-05-16 19:07:00,79.2,58.3,29.86,WSW,252,0.0,5.0,49,0.00,,,0.00,meteohub,2013-05-17 00:07:00,
2013-05-16 19:12:00,79.2,57.7,29.86,SW,221,1.0,6.0,48,0.00,,,0.00,meteohub,2013-05-17 00:12:00,
2013-05-16 19:17:00,79.0,58.1,29.86,SW,219,4.0,6.0,49,0.00,,,0.00,meteohub,2013-05-17 00:17:00,
2013-05-16 19:22:00,79.0,59.4,29.86,WSW,237,3.0,6.0,51,0.00,,,0.00,meteohub,2013-05-17 00:22:00,
2013-05-16 19:27:00,78.6,59.0,29.86,SW,215,1.0,6.0,51,0.00,,,0.00,meteohub,2013-05-17 00:27:00,
2013-05-16 19:32:00,78.4,59.9,29.86,West,263,3.0,7.0,53,0.00,,,0.00,meteohub,2013-05-17 00:32:00,
2013-05-16 19:37:00,78.3,59.7,29.87,WSW,250,0.0,7.0,53,0.00,,,0.00,meteohub,2013-05-17 00:37:00,
2013-05-16 19:42:00,78.1,59.0,29.87,SW,217,4.0,10.0,52,0.00,,,0.00,meteohub,2013-05-17 00:42:00,
2013-05-16 19:47:00,77.7,58.1,29.87,WSW,252,0.0,10.0,51,0.00,,,0.00,meteohub,2013-05-17 00:47:00,
2013-05-16 19:52:00,77.7,58.1,29.87,SW,229,0.0,8.0,51,0.00,,,0.00,meteohub,2013-05-17 00:52:00,
2013-05-16 19:57:00,77.5,57.9,29.87,SW,219,0.0,8.0,51,0.00,,,0.00,meteohub,2013-05-17 00:57:00,
2013-05-16 20:02:00,77.4,57.2,29.87,SW,228,0.0,6.0,50,0.00,,,0.00,meteohub,2013-05-17 01:02:00,
2013-05-16 20:07:00,77.4,57.2,29.87,SSW,211,6.0,6.0,50,0.00,,,0.00,meteohub,2013-05-17 01:07:00,
2013-05-16 20:12:00,77.2,57.0,29.88,WSW,252,1.0,6.0,50,0.00,,,0.00,meteohub,2013-05-17 01:12:00,
2013-05-16 20:17:00,77.2,57.7,29.88,WSW,247,5.0,6.0,51,0.00,,,0.00,meteohub,2013-05-17 01:17:00,
2013-05-16 20:22:00,76.8,57.4,29.88,SW,214,1.0,6.0,51,0.00,,,0.00,meteohub,2013-05-17 01:22:00,
2013-05-16 20:27:00,76.6,57.7,29.88,SW,219,2.0,7.0,52,0.00,,,0.00,meteohub,2013-05-17 01:27:00,
2013-05-16 20:32:00,76.6,57.7,29.88,WSW,241,2.0,9.0,52,0.00,,,0.00,meteohub,2013-05-17 01:32:00,
2013-05-16 20:37:00,76.5,57.6,29.88,SW,234,2.0,9.0,52,0.00,,,0.00,meteohub,2013-05-17 01:37:00,
2013-05-16 20:42:00,76.1,57.7,29.88,SW,220,4.0,9.0,53,0.00,,,0.00,meteohub,2013-05-17 01:42:00,
2013-05-16 20:47:00,75.9,57.6,29.88,SSW,204,4.0,6.0,53,0.00,,,0.00,meteohub,2013-05-17 01:47:00,
2013-05-16 20:52:00,75.7,57.9,29.88,SW,235,8.0,8.0,54,0.00,,,0.00,meteohub,2013-05-17 01:52:00,
2013-05-16 20:57:00,75.6,57.7,29.88,SSW,209,5.0,8.0,54,0.00,,,0.00,meteohub,2013-05-17 01:57:00,
2013-05-16 21:02:00,75.2,57.4,29.89,WSW,242,7.0,9.0,54,0.00,,,0.00,meteohub,2013-05-17 02:02:00,
2013-05-16 21:07:00,74.8,58.1,29.89,SW,234,3.0,9.0,56,0.00,,,0.00,meteohub,2013-05-17 02:07:00,
2013-05-16 21:12:00,74.7,58.5,29.89,SW,223,1.0,9.0,57,0.00,,,0.00,meteohub,2013-05-17 02:12:00,
2013-05-16 21:17:00,74.5,58.8,29.89,SW,219,2.0,8.0,58,0.00,,,0.00,meteohub,2013-05-17 02:17:00,
2013-05-16 21:22:00,74.1,58.5,29.89,SW,225,1.0,6.0,58,0.00,,,0.00,meteohub,2013-05-17 02:22:00,
2013-05-16 21:27:00,73.9,58.3,29.90,SSW,210,0.0,5.0,58,0.00,,,0.00,meteohub,2013-05-17 02:27:00,
2013-05-16 21:32:00,73.8,58.5,29.90,SSW,210,1.0,5.0,59,0.00,,,0.00,meteohub,2013-05-17 02:32:00,
2013-05-16 21:37:00,73.6,58.8,29.90,SSW,210,0.0,4.0,60,0.00,,,0.00,meteohub,2013-05-17 02:37:00,
2013-05-16 21:42:00,73.2,58.5,29.90,SSW,210,2.0,4.0,60,0.00,,,0.00,meteohub,2013-05-17 02:42:00,
2013-05-16 21:47:00,73.2,59.0,29.90,SSW,209,1.0,4.0,61,0.00,,,0.00,meteohub,2013-05-17 02:47:00,
2013-05-16 21:52:00,73.0,58.8,29.91,SSW,211,0.0,4.0,61,0.00,,,0.00,meteohub,2013-05-17 02:52:00,
2013-05-16 21:57:00,73.0,58.8,29.91,SSW,213,2.0,4.0,61,0.00,,,0.00,meteohub,2013-05-17 02:57:00,
2013-05-16 22:02:00,73.0,58.8,29.91,SSW,209,4.0,4.0,61,0.00,,,0.00,meteohub,2013-05-17 03:02:00,
2013-05-16 22:07:00,73.0,58.8,29.91,SSW,207,4.0,6.0,61,0.00,,,0.00,meteohub,2013-05-17 03:07:00,
2013-05-16 22:12:00,72.9,59.0,29.91,SSW,207,2.0,6.0,62,0.00,,,0.00,meteohub,2013-05-17 03:12:00,
2013-05-16 22:17:00,72.7,58.8,29.91,SW,218,0.0,6.0,62,0.00,,,0.00,meteohub,2013-05-17 03:17:00,
2013-05-16 22:22:00,72.5,58.8,29.91,SW,214,2.0,5.0,62,0.00,,,0.00,meteohub,2013-05-17 03:22:00,
2013-05-16 22:27:00,72.3,59.0,29.91,SW,214,1.0,4.0,63,0.00,,,0.00,meteohub,2013-05-17 03:27:00,
2013-05-16 22:32:00,72.1,58.8,29.91,SW,215,3.0,5.0,63,0.00,,,0.00,meteohub,2013-05-17 03:32:00,
2013-05-16 22:37:00,72.1,58.8,29.91,SSW,211,1.0,5.0,63,0.00,,,0.00,meteohub,2013-05-17 03:37:00,
2013-05-16 22:42:00,72.0,59.2,29.91,SSW,211,0.0,5.0,64,0.00,,,0.00,meteohub,2013-05-17 03:42:00,
2013-05-16 22:47:00,71.8,59.0,29.92,SSW,211,0.0,5.0,64,0.00,,,0.00,meteohub,2013-05-17 03:47:00,
2013-05-16 22:52:00,71.4,59.0,29.92,SSW,211,0.0,4.0,65,0.00,,,0.00,meteohub,2013-05-17 03:52:00,
2013-05-16 22:57:00,71.2,58.8,29.92,SSW,211,0.0,2.0,65,0.00,,,0.00,meteohub,2013-05-17 03:57:00,
2013-05-16 23:01:00,71.1,59.2,29.92,SSW,211,0.0,1.0,66,0.00,,,0.00,meteohub,2013-05-17 04:01:00,
2013-05-16 23:02:00,70.9,59.0,29.92,SSW,211,0.0,1.0,66,0.00,,,0.00,meteohub,2013-05-17 04:02:00,
2013-05-16 23:04:00,70.9,59.4,29.92,SSW,211,0.0,1.0,67,0.00,,,0.00,meteohub,2013-05-17 04:04:00,
2013-05-16 23:06:00,70.9,59.4,29.92,SSW,211,0.0,1.0,67,0.00,,,0.00,meteohub,2013-05-17 04:06:00,
2013-05-16 23:11:00,70.5,59.4,29.92,SSW,211,0.0,1.0,68,0.00,,,0.00,meteohub,2013-05-17 04:11:00,
2013-05-16 23:16:00,70.0,59.4,29.92,SSW,211,0.0,1.0,69,0.00,,,0.00,meteohub,2013-05-17 04:16:00,
2013-05-16 23:21:00,69.4,59.2,29.92,SSW,211,0.0,0.0,70,0.00,,,0.00,meteohub,2013-05-17 04:21:00,
2013-05-16 23:26:00,69.1,59.4,29.92,SSW,211,0.0,0.0,71,0.00,,,0.00,meteohub,2013-05-17 04:26:00,
2013-05-16 23:31:00,68.5,59.2,29.92,SSW,211,0.0,0.0,72,0.00,,,0.00,meteohub,2013-05-17 04:31:00,
2013-05-16 23:36:00,68.2,59.5,29.92,SSW,211,0.0,0.0,74,0.00,,,0.00,meteohub,2013-05-17 04:36:00,
2013-05-16 23:41:00,67.6,59.0,29.92,SSW,211,0.0,0.0,74,0.00,,,0.00,meteohub,2013-05-17 04:41:00,
2013-05-16 23:46:00,67.3,59.0,29.92,SSW,211,0.0,0.0,75,0.00,,,0.00,meteohub,2013-05-17 04:46:00,
2013-05-16 23:51:00,67.3,59.5,29.92,SSW,211,0.0,0.0,76,0.00,,,0.00,meteohub,2013-05-17 04:51:00,
2013-05-16 23:56:00,67.3,59.5,29.92,SSW,211,0.0,0.0,76,0.00,,,0.00,meteohub,2013-05-17 04:56:00,